EHI
0 0 0 0 0 0 0 0 0 0 0 0 0 0 0 0 0 0 0 0 0 0 0 0 0 0 0 0 0 0 0 0 0 0 0 0 0 0 0 0 0 0 0
0 0 0 0 0 0 0 0 0 0 0 0 0 0 0 0 0 0 0 0 0 0 0 0 0 0 0 0 0 0 0 0 0 0 0 0 0 0 0 0 0 0 0
0 0 0 0 0 0 0 0 0 0 0 0 0 0 0 0 0 0 0 0 0 0 0 0 0 0 0 0 0 0 0 0 0 0 0 0 0 0 0 0 0 0 0
0 0 0 0 0 0 0 0 0 0 0 0 0 0 0 0 0 0 0 0 0 0 0 0 0 0 0 0 0 0 0 0 0 0 0 0 0 0 0 0 0 0 0
0 0 0 0 0 0 0 0 0 0 0 0 0 0 0 0 0 0 0 0 0 0 0 0 0 0 0 0 0 0 0 0 0 0 0 0 0 0 0 0 0 0 0
0 0 0 0 0 0 0 0 0 0 0 0 0 0 0 0 0 0 0 0 0 0 0 0 0 0 0 0 0 0 0 0 0 0 0 0 0 0 0 0 0 0 0
0 0 0 0 0 0 0 0 0 0 0 0 0 0 0 0 0 0 0 0 0 0 0 0 0 0 0 0 0 0 0 0 0 0 0 0 0 0 0 0 0 0 0
0 0 0 0 0 0 0 0 0 0 0 0 0 0 0 0 0 0 0 0 0 0 0 0 0 0 0 0 0 0 0 0 0 0 0 0 0 0 0 0 0 0 0
0 0 0 0 0 0 0 0 0 0 0 0 0 0 0 0 0 0 0 0 0 0 0 0 0 0 0 0 0 0 0 0 0 0 0 0 0 0 0 0 0 0 0
0 0 0 0 0 0 0 0 0 0 0 0 0 0 0 0 0 0 0 0 0 0 0 0 0 0 0 0 0 0 0 0 0 0 0 0 0 0 0 0 0 0 0
0 0 0 0 0 0 0 0 0 0 0 0 0 0 0 0 0 0 0 0 0 0 0 0 0 0 0 0 0 0 0 0 0 0 0 0 0 0 0 0 0 0 0
0 0 0 0 0 0 0 0 0 0 0 0 0 0 0 0 0 0 0 0 0 0 0 0 0 0 0 0 0 0 0 0 0 0 0 0 0 0 0 0 0 0 0
0 0 0 0 0 0 0 0 0 0 0 0 0 0 0 0 0 0 0 0 0 0 0 0 0 0 0 0 0 0 0 0 0 0 0 0 0 0 0 0 0 0 0
0 0 0 0 0 0 0 0 0 0 0 0 0 0 0 0 0 0 0 0 0 0 0 0 0 0 0 0 0 0 0 0 0 0 0 0 0 0 0 0 0 0 0
0 0 0 0 0 0 0 0 0 0 0 0 0 0 0 0 0 0 0 0 0 0 0 0 0 0 0 0 0 0 0 0 0 0 0 0 0 0 0 0 0 0 0
0 0 0 0 0 0 0 0 0 0 0 0 0 0 0 0 0 0 0 0 0 0 0 0 0 0 0 0 0 0 0 0 0 0 0 0 0 0 0 0 0 0 0
0 0 0 0 0 0 0 0 0 0 0 0 0 0 0 0 0 0 0 0 0 0 0 0 0 0 0 0 0 0 0 0 0 0 0 0 0 0 0 0 0 0 0
0 0 0 0 0 0 0 0 0 0 0 0 0 0 0 0 0 0 0 0 0 0 0 0 0 0 0 0 0 0 0 0 0 0 0 0 0 0 0 0 0 0 0
0 0 0 0 0 0 0 0 0 0 0 0 0 0 0 0 0 0 0 0 0 0 0 0 0 0 0 0 0 0 0 0 0 0 0 0 0 0 0 0 0 0 0
0 0 0 0 0 0 0 0 0 0 0 0 0 0 0 0 0 0 0 0 0 0 0 0 0 0 0 0 0 0 0 0 0 0 0 0 0 0 0 0 0 0 0
0 0 0 0 0 0 0 0 0 0 0 0 0 0 0 0 0 0 0 0 0 0 0 0 0 0 0 0 0 0 0 0 0 0 0 0 0 0 0 0 0 0 0
0 0 0 0 0 0 0 0 0 0 0 0 0 0 0 0 0 0 0 0 0 0 0 0 0 0 0 0 0 0 0 0 0 0 0 0 0 0 0 0 0 0 0
0 0 0 0 0 0 0 0 0 0 0 0 0 0 0 0 0 0 0 0 0 0 0 0 0 0 0 0 0 0 0 0 0 0 0 0 0 0 0 0 0 0 0
0 0 0 0 0 0 0 0 0 0 0 0 0 0 0 0 0 0 0 0 0 0 0 0 0 0 0 0 0 0 0 0 0 0 0 0 0 0 0 0 0 0 0
0 0 0 0 0 0 0 0 0 0 0 0 0 0 0 0 0 0 0 0 0 0 0 0 0 0 0 0 0 0 0 0 0 0 0 0 0 0 0 0 0 0 0
0 0 0 0 0 0 0 0 0 0 0 0 0 0 0 0 0 0 0 0 0 0 0 0 0 0 0 0 0 0 0 0 0 0 0 0 0 0 0 0 0 0 0
Wind_Speed
4 5 6 7 8 9 9 11 11 11 11 11 12 12 14 15 15 15 16 14 16 14 13 14 15 12 10 9 9 8 9 9 11 8 6 6 7 8 9 8 9 10 12
3 4 6 7 7 8 9 10 10 11 11 11 11 12 14 15 15 17 17 17 17 17 16 15 16 13 14 11 10 11 10 10 10 11 8 7 9 8 9 11 12 12 9
3 4 6 6 7 8 9 9 9 10 10 10 11 13 13 13 14 15 16 16 16 17 16 16 16 15 16 13 13 12 10 11 9 10 10 8 8 8 9 11 12 10 12
4 5 6 7 7 8 8 8 9 9 10 10 11 12 12 11 13 13 14 14 15 15 15 16 16 17 17 15 14 14 11 10 9 9 10 8 9 8 7 9 10 7 9
5 7 7 8 8 8 8 8 9 9 10 9 10 11 10 10 11 11 12 14 14 14 14 16 17 21 24 19 14 12 12 11 10 10 10 9 10 8 8 7 10 9 9
6 8 8 8 8 9 9 9 9 10 9 9 10 11 11 10 19 25 18 12 13 15 15 14 16 22 27 32 31 27 21 15 13 12 11 12 11 9 8 8 9 10 12
8 9 9 9 10 10 10 10 10 10 10 10 11 11 12 14 24 26 28 15 14 14 14 13 14 16 24 16 23 30 28 30 26 16 14 14 11 9 9 11 11 12 13
9 10 10 10 10 10 10 10 10 9 9 10 10 11 11 14 23 25 26 18 13 15 15 15 15 15 16 16 14 14 14 15 17 14 11 12 11 10 10 12 13 12 11
10 11 10 9 9 9 10 11 10 9 9 9 8 9 11 13 21 24 24 10 11 14 14 15 16 16 23 28 17 16 15 14 20 25 23 21 24 25 19 10 9 11 13
11 10 8 8 9 10 11 11 9 9 10 9 9 9 11 10 17 22 23 9 11 11 12 14 24 23 25 28 18 15 15 13 10 11 15 17 15 16 22 13 8 10 11
9 9 9 9 10 11 11 9 9 9 9 9 10 9 9 11 15 21 23 10 10 10 11 11 13 26 28 28 24 14 17 14 9 10 9 9 8 8 8 8 7 8 10
10 10 10 10 10 9 11 10 9 9 10 10 9 9 7 8 13 16 22 21 17 12 11 9 11 23 26 27 21 19 23 19 8 8 8 8 7 7 7 7 8 9 10
10 11 11 11 10 10 10 11 9 8 8 8 8 9 7 5 8 19 21 22 23 13 9 15 17 21 22 18 21 22 17 9 6 7 7 7 6 6 5 5 6 7 9
11 11 10 11 11 10 8 8 8 8 8 9 9 9 8 6 5 5 7 9 15 14 10 15 21 21 17 14 13 12 8 6 6 7 6 5 4 4 5 5 5 6 7
11 11 10 10 11 10 9 8 10 9 10 12 9 8 8 8 9 13 9 7 6 8 7 6 7 7 8 7 6 6 5 5 7 5 5 5 5 5 5 4 5 6 8
10 10 9 9 9 9 10 11 14 16 21 23 21 18 12 16 18 18 18 17 17 16 11 7 8 8 8 8 7 6 6 6 6 5 5 5 5 5 6 5 5 7 9
11 11 10 9 9 10 10 11 12 13 17 19 19 20 19 19 19 18 17 17 16 16 10 7 7 7 7 7 6 6 6 6 5 5 5 5 5 5 6 7 7 7 8
11 13 13 10 10 10 10 10 10 11 11 9 11 17 19 18 18 17 16 13 9 9 6 6 6 6 6 6 6 6 5 5 4 4 4 5 5 6 7 7 7 8 9
11 10 10 10 10 10 10 10 10 11 10 10 7 9 14 14 14 14 12 7 6 6 6 5 5 6 5 6 6 5 5 5 5 4 4 5 5 6 7 7 8 13 11
10 17 17 12 10 10 9 9 9 9 10 9 8 7 5 6 4 5 5 5 5 5 5 6 6 6 5 5 5 5 5 4 5 5 5 5 5 6 7 8 8 8 8
10 12 18 13 10 10 9 9 9 9 9 8 7 8 10 5 4 4 4 4 5 5 5 5 5 5 5 5 5 5 6 5 5 5 5 5 6 6 6 7 7 7 8
10 10 10 10 10 9 10 9 9 9 9 9 7 7 10 5 3 3 3 3 3 3 4 4 4 4 5 5 5 5 5 5 5 5 5 5 5 6 6 7 7 7 7
10 11 11 10 9 13 12 8 8 8 8 7 6 5 4 3 3 3 3 2 3 3 3 4 4 4 4 4 4 5 5 5 5 5 5 5 6 6 6 7 8 8 8
10 12 12 11 10 9 9 9 8 7 7 6 5 4 3 3 2 2 2 2 3 3 3 3 4 5 6 4 3 3 4 5 4 5 6 6 6 6 6 6 7 8 8
10 11 11 10 10 9 9 8 7 7 6 5 4 3 2 2 2 1 2 2 3 3 4 3 3 4 6 6 4 4 7 10 9 6 5 6 7 7 7 7 7 8 8
10 11 10 9 9 8 8 8 7 6 5 4 3 2 2 2 2 2 2 2 2 3 3 3 4 4 5 5 6 8 10 11 11 12 7 5 6 6 6 6 8 8 8
Wind_Direction
242 239 240 240 236 234 235 237 237 236 232 229 223 217 215 215 213 216 219 214 218 218 215 214 216 208 207 208 210 212 218 219 239 243 244 248 246 253 264 262 260 259 263
256 255 253 250 245 242 243 243 238 237 234 232 228 225 221 218 214 216 219 216 216 217 215 214 215 210 210 210 212 215 219 220 230 244 248 248 247 249 254 259 264 264 257
284 275 271 267 259 254 252 250 244 241 239 235 231 230 228 222 218 217 218 218 218 217 214 214 213 209 212 213 213 217 220 225 226 237 247 248 252 252 257 262 262 261 263
310 293 284 277 271 267 264 260 254 247 244 241 237 235 231 225 221 218 216 217 218 217 215 214 213 212 214 213 215 218 218 222 225 233 244 249 254 250 249 260 267 256 263
311 298 288 284 281 279 276 270 264 256 251 245 242 240 233 228 224 219 217 218 218 218 217 216 216 218 219 217 217 215 215 220 224 232 241 248 250 247 248 252 266 271 262
304 293 289 289 286 282 278 275 270 264 257 250 245 242 238 234 240 237 229 222 221 220 220 218 220 227 228 227 226 223 217 217 222 227 235 241 245 242 249 256 265 275 279
294 288 286 283 280 277 277 276 271 267 262 255 250 244 242 240 243 244 241 228 221 222 221 219 222 225 227 228 234 235 233 230 227 225 234 240 245 244 250 260 261 265 271
290 285 281 276 274 275 273 271 270 267 262 258 255 249 247 246 249 249 246 238 223 221 219 218 221 223 223 219 221 229 235 238 237 235 236 245 248 250 248 256 265 271 271
287 282 278 275 277 278 276 274 272 270 267 261 257 250 249 250 250 251 248 237 228 223 219 218 220 223 226 226 220 224 231 236 243 243 244 247 251 256 258 263 266 274 278
284 282 285 287 285 282 280 279 276 271 270 268 263 255 252 249 250 252 250 235 231 227 222 220 224 223 226 228 223 219 227 229 224 238 249 257 258 262 267 262 256 266 277
291 294 294 290 285 284 284 281 279 276 274 271 269 263 254 251 255 254 251 237 227 229 227 221 220 228 228 228 225 219 228 227 222 229 236 240 244 246 248 243 235 243 263
296 294 292 290 289 290 287 286 281 279 279 276 275 273 258 254 256 255 253 248 238 230 230 222 219 225 228 229 229 229 232 235 226 225 233 238 241 244 242 238 237 239 245
298 296 295 294 291 289 289 291 290 285 280 279 275 275 270 250 252 258 257 254 249 237 228 227 222 225 225 228 230 231 232 227 216 226 235 239 235 236 238 244 250 251 256
298 297 295 295 294 291 288 287 286 284 280 279 278 276 274 263 247 242 245 254 253 246 238 233 227 225 220 216 222 232 224 213 215 226 233 237 235 239 244 245 258 265 272
295 295 295 293 291 292 287 283 284 271 273 280 276 270 274 273 260 256 248 234 229 235 227 215 209 207 208 203 202 207 208 214 229 221 225 234 241 248 255 252 256 265 270
298 297 295 293 293 292 292 291 284 283 290 288 284 279 271 268 274 270 264 256 247 239 231 218 210 207 206 202 199 201 205 211 215 218 222 230 242 253 263 263 260 263 270
294 295 295 293 293 292 292 294 298 298 293 291 291 289 282 278 274 269 263 255 246 240 230 212 206 201 201 196 194 198 205 207 205 211 222 230 242 254 262 267 268 269 271
293 295 296 292 290 289 289 291 293 296 300 293 289 290 289 284 277 270 262 254 240 229 217 206 199 193 193 192 193 197 201 200 202 210 219 229 239 253 262 265 268 269 275
296 295 292 289 287 287 288 288 287 288 290 292 290 288 288 286 278 268 259 242 230 215 203 194 187 189 189 187 189 192 193 199 204 209 221 232 240 249 259 264 269 275 280
295 296 298 294 291 290 289 288 289 289 290 290 289 286 284 277 265 258 243 231 224 206 193 188 186 187 182 180 181 184 191 202 208 216 226 235 241 248 258 265 268 273 276
295 295 297 295 292 291 290 290 289 289 289 288 286 282 282 268 256 247 238 226 214 199 188 184 182 179 177 175 178 187 197 208 213 219 229 236 243 252 260 265 268 271 276
294 293 293 293 293 293 292 290 289 288 288 289 288 287 286 277 256 248 237 220 202 188 176 172 174 175 177 179 183 191 204 214 219 223 231 239 246 255 262 265 269 274 277
295 296 297 294 293 296 298 291 288 288 287 285 285 285 278 261 254 245 227 199 175 166 163 163 165 168 172 177 182 191 206 218 220 221 233 246 253 257 260 266 271 277 279
297 297 297 297 297 295 294 292 290 289 288 288 286 279 265 251 251 242 204 171 161 160 159 163 167 173 176 181 191 200 209 223 224 226 231 245 257 261 263 267 272 275 279
298 298 299 300 300 299 297 295 293 293 293 290 283 271 254 242 238 212 174 157 157 161 164 166 170 176 185 193 202 216 236 245 250 244 231 241 251 254 262 269 274 279 279
300 299 298 297 297 296 296 297 297 296 294 291 280 259 242 226 213 183 164 156 157 163 170 176 179 181 192 205 216 233 246 253 258 260 255 245 246 254 262 270 275 280 281